Find Starlink 2330

NORAD ID: 47874 Int'l Des: 2021-021 Owner: SPXS Country: US Constellation: starlink operational
LEOCIRCULARSTARLINK_TYPE

当前视图

正在加载3D地球...

About Starlink 2330

Starlink 2330 (NORAD 47874) is a starlink constellation satellite (v1.0) launched Mar 14, 2021 by SPXS of US. It operates in LEO, CIRCULAR, STARLINK_TYPE orbit with a mass of 260.00 kg.

关于 Starlink 2330

正在加载描述...

即将过境

Passes for default location (London). Set your location on the main map for personalized predictions.

高度历史

Loading altitude history...

两行轨道根数

1 47874U 21021Q 26168.11173625 .00051804 00000-0 13787-2 0 9991
2 47874 53.1441 112.6418 0004443 58.8671 301.2769 15.37722259292210
Epoch: Jun 17, 2026 • Age: 31 hours

当前状态

高度 452.2 km
速度 7.64 km/s
星下点 -1.04°S, 51.02°E
发射日期 Mar 14, 2021
运行时间 5.2 years
类型 internet

技术详情

分类 Payload
质量 260.00 kg
干质量 248.00 kg
总质量 260.00 kg
长度 0.20 m
直径 2.80 m
跨度 9.00 m
形状 Box + pan
制造商 SPXS
平台类型 Starlink
阶段状态 In Orbit
所有者/国家 SPXS/US

Most Searched